Time,TemperatureF,DewpointF,PressureIn,WindDirection,WindDirectionDegrees,WindSpeedMPH,WindSpeedGustMPH,Humidity,HourlyPrecipIn,Conditions,Clouds,dailyrainin,SolarRadiationWatts/m^2,SoftwareType,DateUTC
2013-01-30 00:00:00,27.0,15.0,30.00,West,273,5.0,12.0,60,0.00,,BKN150,0.00,0.00,VWS V14.01,2013-01-30 07:00:00,
2013-01-30 00:05:00,27.0,15.0,30.00,West,275,8.0,14.0,60,0.00,,SCT060,0.00,0.00,VWS V14.01,2013-01-30 07:05:00,
2013-01-30 00:10:00,27.1,15.1,30.01,NW,321,9.0,10.0,60,0.00,,SCT060,0.00,0.00,VWS V14.01,2013-01-30 07:10:00,
2013-01-30 00:15:00,27.2,15.2,30.01,NW,304,5.0,12.0,60,0.00,,SCT060,0.00,0.00,VWS V14.01,2013-01-30 07:15:00,
2013-01-30 00:20:00,27.3,14.9,30.01,WNW,298,6.0,15.0,59,0.00,,SCT060,0.00,0.00,VWS V14.01,2013-01-30 07:20:00,
2013-01-30 00:25:00,27.4,15.0,30.01,West,271,4.0,13.0,59,0.00,,SCT060,0.00,0.00,VWS V14.01,2013-01-30 07:25:00,
2013-01-30 00:31:00,27.4,15.0,30.01,WNW,301,12.0,19.0,59,0.00,,SCT060,0.00,0.00,VWS V14.01,2013-01-30 07:31:00,
2013-01-30 00:36:00,27.5,15.4,30.01,West,269,17.0,17.0,60,0.00,,SCT060,0.00,0.00,VWS V14.01,2013-01-30 07:36:00,
2013-01-30 00:41:00,27.5,15.4,30.01,WNW,298,11.0,16.0,60,0.00,,SCT060,0.00,0.00,VWS V14.01,2013-01-30 07:41:00,
2013-01-30 00:46:00,27.4,15.4,30.01,WNW,301,12.0,18.0,60,0.00,,SCT060,0.00,0.00,VWS V14.01,2013-01-30 07:46:00,
2013-01-30 00:51:00,27.4,15.4,30.02,NW,323,10.0,16.0,60,0.00,,SCT060,0.00,0.00,VWS V14.01,2013-01-30 07:51:00,
2013-01-30 00:56:00,27.4,15.4,30.02,WNW,290,3.0,18.0,60,0.00,,SCT060,0.00,0.00,VWS V14.01,2013-01-30 07:56:00,
2013-01-30 01:01:00,27.4,15.7,30.02,WNW,288,2.0,17.0,61,0.00,,SCT150,0.00,0.00,VWS V14.01,2013-01-30 08:01:00,
2013-01-30 01:06:00,27.3,15.6,30.02,WNW,284,12.0,20.0,61,0.00,,SCT150,0.00,0.00,VWS V14.01,2013-01-30 08:06:00,
2013-01-30 01:11:00,27.3,15.6,30.03,NW,312,4.0,17.0,61,0.00,,SCT150,0.00,0.00,VWS V14.01,2013-01-30 08:11:00,
2013-01-30 01:16:00,27.2,15.6,30.03,WNW,284,8.0,17.0,61,0.00,,SCT150,0.00,0.00,VWS V14.01,2013-01-30 08:16:00,
2013-01-30 01:21:00,27.2,15.6,30.03,NNW,330,11.0,17.0,61,0.00,,SCT150,0.00,0.00,VWS V14.01,2013-01-30 08:21:00,
2013-01-30 01:26:00,27.2,15.2,30.03,WNW,286,9.0,12.0,60,0.00,,SCT150,0.00,0.00,VWS V14.01,2013-01-30 08:26:00,
2013-01-30 01:31:00,27.3,14.9,30.04,West,276,9.0,19.0,59,0.00,,SCT150,0.00,0.00,VWS V14.01,2013-01-30 08:31:00,
2013-01-30 01:36:00,27.4,15.0,30.05,WNW,294,10.0,18.0,59,0.00,,SCT150,0.00,0.00,VWS V14.01,2013-01-30 08:36:00,
2013-01-30 01:41:00,27.4,15.0,30.05,West,281,8.0,18.0,59,0.00,,SCT150,0.00,0.00,VWS V14.01,2013-01-30 08:41:00,
2013-01-30 01:46:00,27.3,15.3,30.05,NW,322,6.0,15.0,60,0.00,,SCT150,0.00,0.00,VWS V14.01,2013-01-30 08:46:00,
2013-01-30 01:51:00,27.2,15.2,30.06,WNW,291,10.0,16.0,60,0.00,,SCT150,0.00,0.00,VWS V14.01,2013-01-30 08:51:00,
2013-01-30 01:57:00,27.1,15.4,30.06,WNW,300,4.0,16.0,61,0.00,,SCT150,0.00,0.00,VWS V14.01,2013-01-30 08:57:00,
2013-01-30 02:02:00,27.0,15.4,30.06,WNW,290,9.0,15.0,61,0.00,,SCT060,0.00,0.00,VWS V14.01,2013-01-30 09:02:00,
2013-01-30 02:07:00,26.9,15.3,30.06,NW,309,5.0,15.0,61,0.00,,SCT060,0.00,0.00,VWS V14.01,2013-01-30 09:07:00,
2013-01-30 02:12:00,26.9,15.3,30.07,WNW,298,6.0,16.0,61,0.00,,SCT060,0.00,0.00,VWS V14.01,2013-01-30 09:12:00,
2013-01-30 02:17:00,26.9,15.3,30.07,West,269,16.0,17.0,61,0.00,,SCT060,0.00,0.00,VWS V14.01,2013-01-30 09:17:00,
2013-01-30 02:22:00,26.9,15.3,30.07,WNW,303,15.0,18.0,61,0.00,,SCT060,0.00,0.00,VWS V14.01,2013-01-30 09:22:00,
2013-01-30 02:27:00,26.9,15.3,30.07,WNW,295,14.0,21.0,61,0.00,,SCT060,0.00,0.00,VWS V14.01,2013-01-30 09:27:00,
2013-01-30 02:32:00,26.9,15.3,30.07,NW,309,6.0,16.0,61,0.00,,SCT060,0.00,0.00,VWS V14.01,2013-01-30 09:32:00,
2013-01-30 02:37:00,26.8,15.2,30.08,WNW,289,6.0,17.0,61,0.00,,SCT060,0.00,0.00,VWS V14.01,2013-01-30 09:37:00,
2013-01-30 02:42:00,26.7,15.1,30.08,WNW,295,13.0,23.0,61,0.00,,SCT060,0.00,0.00,VWS V14.01,2013-01-30 09:42:00,
2013-01-30 02:47:00,26.7,14.7,30.08,NW,304,5.0,16.0,60,0.00,,SCT060,0.00,0.00,VWS V14.01,2013-01-30 09:47:00,
2013-01-30 02:52:00,26.6,14.6,30.08,WNW,286,15.0,15.0,60,0.00,,SCT060,0.00,0.00,VWS V14.01,2013-01-30 09:52:00,
2013-01-30 02:57:00,26.5,14.9,30.08,West,267,9.0,16.0,61,0.00,,SCT060,0.00,0.00,VWS V14.01,2013-01-30 09:57:00,
2013-01-30 03:02:00,26.4,14.8,30.08,WNW,288,13.0,17.0,61,0.00,,SCT040,0.00,0.00,VWS V14.01,2013-01-30 10:02:00,
2013-01-30 03:07:00,26.3,14.3,30.08,NW,305,5.0,15.0,60,0.00,,SCT040,0.00,0.00,VWS V14.01,2013-01-30 10:07:00,
2013-01-30 03:12:00,26.3,14.3,30.08,NW,315,8.0,15.0,60,0.00,,SCT040,0.00,0.00,VWS V14.01,2013-01-30 10:12:00,
2013-01-30 03:17:00,26.1,14.5,30.08,NNW,341,2.0,10.0,61,0.00,,SCT040,0.00,0.00,VWS V14.01,2013-01-30 10:17:00,
2013-01-30 03:22:00,25.9,14.3,30.09,NW,312,5.0,11.0,61,0.00,,SCT040,0.00,0.00,VWS V14.01,2013-01-30 10:22:00,
2013-01-30 03:28:00,25.7,14.1,30.09,North,350,5.0,10.0,61,0.00,,SCT040,0.00,0.00,VWS V14.01,2013-01-30 10:28:00,
2013-01-30 03:33:00,25.6,14.4,30.09,NNW,337,4.0,10.0,62,0.00,,SCT040,0.00,0.00,VWS V14.01,2013-01-30 10:33:00,
2013-01-30 03:38:00,25.4,14.2,30.09,NNW,336,10.0,10.0,62,0.00,,SCT040,0.00,0.00,VWS V14.01,2013-01-30 10:38:00,
2013-01-30 03:43:00,25.2,14.4,30.09,NNW,328,8.0,15.0,63,0.00,,SCT040,0.00,0.00,VWS V14.01,2013-01-30 10:43:00,
2013-01-30 03:48:00,25.2,14.4,30.09,NNW,332,8.0,16.0,63,0.00,,SCT040,0.00,0.00,VWS V14.01,2013-01-30 10:48:00,
2013-01-30 03:53:00,25.2,14.4,30.09,WNW,282,9.0,18.0,63,0.00,,SCT040,0.00,0.00,VWS V14.01,2013-01-30 10:53:00,
2013-01-30 03:58:00,25.2,14.4,30.09,WNW,303,6.0,17.0,63,0.00,,SCT040,0.00,0.00,VWS V14.01,2013-01-30 10:58:00,
2013-01-30 04:03:00,25.2,14.4,30.08,WNW,294,13.0,17.0,63,0.00,,FEW040,0.00,0.00,VWS V14.01,2013-01-30 11:03:00,
2013-01-30 04:08:00,25.2,14.4,30.09,WNW,301,5.0,17.0,63,0.00,,FEW040,0.00,0.00,VWS V14.01,2013-01-30 11:08:00,
2013-01-30 04:13:00,25.2,14.4,30.09,WNW,292,10.0,20.0,63,0.00,,FEW040,0.00,0.00,VWS V14.01,2013-01-30 11:13:00,
2013-01-30 04:18:00,25.1,14.6,30.09,WNW,298,10.0,17.0,64,0.00,,FEW040,0.00,0.00,VWS V14.01,2013-01-30 11:18:00,
2013-01-30 04:23:00,25.1,14.6,30.10,WNW,294,8.0,19.0,64,0.00,,FEW040,0.00,0.00,VWS V14.01,2013-01-30 11:23:00,
2013-01-30 04:28:00,25.1,14.6,30.10,West,280,10.0,16.0,64,0.00,,FEW040,0.00,0.00,VWS V14.01,2013-01-30 11:28:00,
2013-01-30 04:33:00,25.1,14.6,30.10,WNW,302,5.0,16.0,64,0.00,,FEW040,0.00,0.00,VWS V14.01,2013-01-30 11:33:00,
2013-01-30 04:38:00,25.0,14.6,30.11,NW,311,8.0,16.0,64,0.00,,FEW040,0.00,0.00,VWS V14.01,2013-01-30 11:38:00,
2013-01-30 04:43:00,24.9,14.5,30.11,NW,319,9.0,14.0,64,0.00,,FEW040,0.00,0.00,VWS V14.01,2013-01-30 11:43:00,
2013-01-30 04:48:00,25.0,14.2,30.11,WNW,300,4.0,13.0,63,0.00,,FEW040,0.00,0.00,VWS V14.01,2013-01-30 11:48:00,
2013-01-30 04:53:00,25.0,14.2,30.11,WNW,300,8.0,12.0,63,0.00,,FEW040,0.00,0.00,VWS V14.01,2013-01-30 11:53:00,
2013-01-30 04:58:00,24.9,14.5,30.11,NW,310,5.0,14.0,64,0.00,,FEW040,0.00,0.00,VWS V14.01,2013-01-30 11:58:00,
2013-01-30 05:03:00,24.7,14.3,30.11,NW,311,0.0,10.0,64,0.00,,FEW040,0.00,0.00,VWS V14.01,2013-01-30 12:03:00,
2013-01-30 05:08:00,24.5,14.1,30.11,West,279,12.0,12.0,64,0.00,,FEW040,0.00,0.00,VWS V14.01,2013-01-30 12:08:00,
2013-01-30 05:13:00,24.4,13.6,30.10,WNW,288,7.0,16.0,63,0.00,,FEW040,0.00,0.00,VWS V14.01,2013-01-30 12:13:00,
2013-01-30 05:18:00,24.6,13.8,30.11,WNW,288,8.0,17.0,63,0.00,,FEW040,0.00,0.00,VWS V14.01,2013-01-30 12:18:00,
2013-01-30 05:24:00,24.7,13.9,30.11,WNW,292,8.0,15.0,63,0.00,,FEW040,0.00,0.00,VWS V14.01,2013-01-30 12:24:00,
2013-01-30 05:29:00,24.6,13.8,30.11,WNW,292,6.0,13.0,63,0.00,,FEW040,0.00,0.00,VWS V14.01,2013-01-30 12:29:00,
2013-01-30 05:34:00,24.4,14.0,30.11,WNW,290,8.0,14.0,64,0.00,,FEW040,0.00,0.00,VWS V14.01,2013-01-30 12:34:00,
2013-01-30 05:39:00,24.3,14.2,30.10,NW,311,6.0,14.0,65,0.00,,FEW040,0.00,0.00,VWS V14.01,2013-01-30 12:39:00,
2013-01-30 05:44:00,24.2,14.1,30.11,NW,305,1.0,14.0,65,0.00,,FEW040,0.00,0.00,VWS V14.01,2013-01-30 12:44:00,
2013-01-30 05:49:00,24.2,13.8,30.11,WNW,298,4.0,14.0,64,0.00,,FEW040,0.00,0.00,VWS V14.01,2013-01-30 12:49:00,
2013-01-30 05:54:00,24.1,13.7,30.12,West,279,2.0,13.0,64,0.00,,FEW040,0.00,0.00,VWS V14.01,2013-01-30 12:54:00,
2013-01-30 05:59:00,23.9,13.5,30.12,WNW,302,3.0,6.0,64,0.00,,FEW040,0.00,0.00,VWS V14.01,2013-01-30 12:59:00,
2013-01-30 06:04:00,23.7,13.3,30.12,WNW,302,0.0,5.0,64,0.00,,FEW040,0.00,0.00,VWS V14.01,2013-01-30 13:04:00,
2013-01-30 06:09:00,23.5,13.1,30.12,WNW,302,2.0,2.0,64,0.00,,FEW040,0.00,0.00,VWS V14.01,2013-01-30 13:09:00,
2013-01-30 06:14:00,23.2,12.8,30.12,WNW,302,3.0,4.0,64,0.00,,FEW040,0.00,0.00,VWS V14.01,2013-01-30 13:14:00,
2013-01-30 06:19:00,23.0,12.6,30.13,WNW,302,0.0,3.0,64,0.00,,FEW040,0.00,0.00,VWS V14.01,2013-01-30 13:19:00,
2013-01-30 06:24:00,22.8,12.5,30.13,WNW,303,0.0,3.0,64,0.00,,FEW040,0.00,0.00,VWS V14.01,2013-01-30 13:24:00,
2013-01-30 06:29:00,22.7,12.7,30.13,WNW,302,0.0,4.0,65,0.00,,FEW040,0.00,0.00,VWS V14.01,2013-01-30 13:29:00,
2013-01-30 06:34:00,22.6,12.6,30.14,WNW,303,0.0,0.0,65,0.00,,FEW040,0.00,0.00,VWS V14.01,2013-01-30 13:34:00,
2013-01-30 06:39:00,22.5,12.2,30.14,WNW,302,0.0,0.0,64,0.00,,FEW040,0.00,0.00,VWS V14.01,2013-01-30 13:39:00,
2013-01-30 06:44:00,22.3,12.3,30.14,WNW,302,0.0,0.0,65,0.00,,FEW040,0.00,0.00,VWS V14.01,2013-01-30 13:44:00,
2013-01-30 06:49:00,22.2,12.2,30.14,WNW,302,0.0,1.0,65,0.00,,FEW040,0.00,0.00,VWS V14.01,2013-01-30 13:49:00,
2013-01-30 06:54:00,21.9,12.3,30.15,WNW,302,5.0,5.0,66,0.00,,FEW040,0.00,0.00,VWS V14.01,2013-01-30 13:54:00,
2013-01-30 06:59:00,21.7,12.4,30.15,WNW,300,4.0,5.0,67,0.00,,FEW040,0.00,0.00,VWS V14.01,2013-01-30 13:59:00,
2013-01-30 07:04:00,21.7,12.4,30.15,WNW,292,6.0,7.0,67,0.00,,FEW040,0.00,0.00,VWS V14.01,2013-01-30 14:04:00,
2013-01-30 07:09:00,22.0,12.4,30.15,WNW,284,6.0,8.0,66,0.00,,FEW040,0.00,5.00,VWS V14.01,2013-01-30 14:09:00,
2013-01-30 07:14:00,22.2,12.2,30.15,WNW,296,7.0,9.0,65,0.00,,FEW040,0.00,7.00,VWS V14.01,2013-01-30 14:14:00,
2013-01-30 07:19:00,22.5,12.5,30.15,WNW,298,5.0,8.0,65,0.00,,FEW040,0.00,9.00,VWS V14.01,2013-01-30 14:19:00,
2013-01-30 07:24:00,22.8,12.8,30.15,NW,305,6.0,6.0,65,0.00,,FEW040,0.00,12.00,VWS V14.01,2013-01-30 14:24:00,
2013-01-30 07:30:00,23.1,13.1,30.16,WNW,302,4.0,8.0,65,0.00,,FEW040,0.00,14.00,VWS V14.01,2013-01-30 14:30:00,
2013-01-30 07:35:00,23.6,13.6,30.16,NW,306,6.0,7.0,65,0.00,,FEW040,0.00,16.00,VWS V14.01,2013-01-30 14:35:00,
2013-01-30 07:40:00,23.9,13.5,30.16,NW,317,1.0,5.0,64,0.00,,FEW040,0.00,23.00,VWS V14.01,2013-01-30 14:40:00,
2013-01-30 07:45:00,24.1,13.7,30.17,NW,312,2.0,4.0,64,0.00,,FEW040,0.00,28.00,VWS V14.01,2013-01-30 14:45:00,
2013-01-30 07:50:00,24.3,13.5,30.16,NW,313,0.0,4.0,63,0.00,,FEW040,0.00,42.00,VWS V14.01,2013-01-30 14:50:00,
2013-01-30 07:55:00,24.4,13.6,30.17,NNW,333,3.0,6.0,63,0.00,,FEW040,0.00,141.00,VWS V14.01,2013-01-30 14:55:00,
2013-01-30 08:00:00,24.6,13.8,30.17,WNW,299,7.0,7.0,63,0.00,,FEW045,0.00,111.00,VWS V14.01,2013-01-30 15:00:00,
2013-01-30 08:05:00,25.1,14.3,30.17,WNW,296,2.0,4.0,63,0.00,,FEW045,0.00,25.00,VWS V14.01,2013-01-30 15:05:00,
2013-01-30 08:10:00,25.4,14.2,30.17,WNW,296,0.0,2.0,62,0.00,,FEW045,0.00,32.00,VWS V14.01,2013-01-30 15:10:00,
2013-01-30 08:15:00,25.5,14.3,30.17,WNW,296,1.0,3.0,62,0.00,,FEW045,0.00,26.00,VWS V14.01,2013-01-30 15:15:00,
2013-01-30 08:20:00,25.6,14.4,30.17,NW,323,0.0,4.0,62,0.00,,FEW045,0.00,25.00,VWS V14.01,2013-01-30 15:20:00,
2013-01-30 08:25:00,25.7,14.1,30.18,NW,325,6.0,6.0,61,0.00,,FEW045,0.00,26.00,VWS V14.01,2013-01-30 15:25:00,
2013-01-30 08:30:00,25.8,14.2,30.18,NW,325,2.0,3.0,61,0.00,,FEW045,0.00,28.00,VWS V14.01,2013-01-30 15:30:00,
2013-01-30 08:35:00,25.9,14.7,30.18,NW,325,0.0,4.0,62,0.00,,FEW045,0.00,33.00,VWS V14.01,2013-01-30 15:35:00,
2013-01-30 08:41:00,26.0,14.8,30.18,NW,325,0.0,1.0,62,0.00,,FEW045,0.00,26.00,VWS V14.01,2013-01-30 15:41:00,
2013-01-30 08:46:00,26.1,14.9,30.18,NW,326,5.0,6.0,62,0.00,,FEW045,0.00,26.00,VWS V14.01,2013-01-30 15:46:00,
2013-01-30 08:51:00,26.3,14.7,30.18,NNW,327,5.0,5.0,61,0.00,,FEW045,0.00,28.00,VWS V14.01,2013-01-30 15:51:00,
2013-01-30 08:56:00,26.5,14.9,30.18,NNW,327,0.0,5.0,61,0.00,,FEW045,0.00,28.00,VWS V14.01,2013-01-30 15:56:00,
2013-01-30 09:01:00,26.6,15.0,30.19,NNW,327,0.0,1.0,61,0.00,,FEW045,0.00,51.00,VWS V14.01,2013-01-30 16:01:00,
2013-01-30 09:06:00,26.7,14.7,30.19,NNW,327,0.0,1.0,60,0.00,,FEW045,0.00,28.00,VWS V14.01,2013-01-30 16:06:00,
2013-01-30 09:11:00,26.9,14.9,30.19,NNW,327,3.0,4.0,60,0.00,,FEW045,0.00,30.00,VWS V14.01,2013-01-30 16:11:00,
2013-01-30 09:16:00,27.1,15.1,30.19,NNW,327,0.0,0.0,60,0.00,,FEW045,0.00,30.00,VWS V14.01,2013-01-30 16:16:00,
2013-01-30 09:21:00,27.2,14.8,30.19,NNW,327,1.0,2.0,59,0.00,,FEW045,0.00,32.00,VWS V14.01,2013-01-30 16:21:00,
2013-01-30 09:26:00,27.6,14.8,30.19,NNW,327,0.0,4.0,58,0.00,,FEW045,0.00,79.00,VWS V14.01,2013-01-30 16:26:00,
2013-01-30 09:31:00,28.1,14.8,30.19,NNW,327,0.0,4.0,57,0.00,,FEW045,0.00,91.00,VWS V14.01,2013-01-30 16:31:00,
2013-01-30 09:36:00,29.0,14.9,30.19,WNW,294,0.0,5.0,55,0.00,,FEW045,0.00,476.00,VWS V14.01,2013-01-30 16:36:00,
2013-01-30 09:41:00,30.0,14.5,30.20,WNW,294,0.0,3.0,52,0.00,,FEW045,0.00,490.00,VWS V14.01,2013-01-30 16:41:00,
2013-01-30 09:46:00,30.5,14.5,30.20,WNW,294,0.0,4.0,51,0.00,,FEW045,0.00,501.00,VWS V14.01,2013-01-30 16:46:00,
2013-01-30 09:51:00,31.4,14.9,30.20,North,355,5.0,6.0,50,0.00,,FEW045,0.00,473.00,VWS V14.01,2013-01-30 16:51:00,
2013-01-30 09:57:00,31.7,14.7,30.20,North,360,1.0,4.0,49,0.00,,FEW045,0.00,188.00,VWS V14.01,2013-01-30 16:57:00,
2013-01-30 10:02:00,32.1,14.6,30.20,NNW,331,0.0,4.0,48,0.00,,FEW045,0.00,534.00,VWS V14.01,2013-01-30 17:02:00,
2013-01-30 10:07:00,32.0,14.1,30.20,NNW,331,0.0,0.0,47,0.00,,FEW045,0.00,515.00,VWS V14.01,2013-01-30 17:07:00,
2013-01-30 10:12:00,31.8,14.4,30.20,NNW,331,0.0,0.0,48,0.00,,FEW045,0.00,480.00,VWS V14.01,2013-01-30 17:12:00,
2013-01-30 10:17:00,32.3,14.3,30.21,NNW,331,0.0,2.0,47,0.00,,FEW045,0.00,568.00,VWS V14.01,2013-01-30 17:17:00,
2013-01-30 10:22:00,32.9,13.9,30.21,NNW,331,0.0,2.0,45,0.00,,FEW045,0.00,571.00,VWS V14.01,2013-01-30 17:22:00,
2013-01-30 10:27:00,33.5,13.9,30.20,NNW,346,3.0,8.0,44,0.00,,FEW045,0.00,585.00,VWS V14.01,2013-01-30 17:27:00,
2013-01-30 10:32:00,34.2,14.1,30.21,NE,35,1.0,4.0,43,0.00,,FEW045,0.00,592.00,VWS V14.01,2013-01-30 17:32:00,
2013-01-30 10:37:00,34.8,13.5,30.20,NNE,30,0.0,3.0,41,0.00,,FEW045,0.00,603.00,VWS V14.01,2013-01-30 17:37:00,
2013-01-30 10:42:00,35.8,12.7,30.20,NNE,30,2.0,2.0,38,0.00,,FEW045,0.00,610.00,VWS V14.01,2013-01-30 17:42:00,
2013-01-30 10:47:00,37.3,11.5,30.20,WNW,294,8.0,8.0,34,0.00,,FEW045,0.00,621.00,VWS V14.01,2013-01-30 17:47:00,
2013-01-30 10:52:00,38.1,9.4,30.20,WNW,298,6.0,9.0,30,0.00,,FEW045,0.00,628.00,VWS V14.01,2013-01-30 17:52:00,
2013-01-30 10:57:00,38.3,8.8,30.20,NW,317,8.0,16.0,29,0.00,,FEW045,0.00,633.00,VWS V14.01,2013-01-30 17:57:00,
2013-01-30 11:03:00,38.5,9.0,30.20,NW,315,5.0,14.0,29,0.00,,FEW048,0.00,640.00,VWS V14.01,2013-01-30 18:03:00,
2013-01-30 11:08:00,38.7,8.4,30.20,NW,312,6.0,17.0,28,0.00,,FEW048,0.00,647.00,VWS V14.01,2013-01-30 18:08:00,
2013-01-30 11:13:00,39.1,8.8,30.20,NW,317,11.0,17.0,28,0.00,,FEW048,0.00,652.00,VWS V14.01,2013-01-30 18:13:00,
2013-01-30 11:18:00,39.4,9.0,30.20,NW,314,4.0,19.0,28,0.00,,FEW048,0.00,654.00,VWS V14.01,2013-01-30 18:18:00,
2013-01-30 11:23:00,39.8,8.6,30.19,NW,312,6.0,19.0,27,0.00,,FEW048,0.00,659.00,VWS V14.01,2013-01-30 18:23:00,
2013-01-30 11:28:00,39.9,8.6,30.19,NW,325,8.0,18.0,27,0.00,,FEW048,0.00,664.00,VWS V14.01,2013-01-30 18:28:00,
2013-01-30 11:33:00,40.2,8.9,30.19,NNW,331,14.0,16.0,27,0.00,,FEW048,0.00,668.00,VWS V14.01,2013-01-30 18:33:00,
2013-01-30 11:38:00,40.6,9.2,30.19,NW,317,11.0,21.0,27,0.00,,FEW048,0.00,670.00,VWS V14.01,2013-01-30 18:38:00,
2013-01-30 11:43:00,40.9,9.5,30.19,West,273,8.0,20.0,27,0.00,,FEW048,0.00,673.00,VWS V14.01,2013-01-30 18:43:00,
2013-01-30 11:48:00,41.1,9.7,30.19,NW,306,7.0,16.0,27,0.00,,FEW048,0.00,673.00,VWS V14.01,2013-01-30 18:48:00,
2013-01-30 11:53:00,41.1,9.7,30.19,NW,314,14.0,18.0,27,0.00,,FEW048,0.00,675.00,VWS V14.01,2013-01-30 18:53:00,
2013-01-30 11:58:00,41.5,10.8,30.18,NW,319,7.0,15.0,28,0.00,,FEW048,0.00,673.00,VWS V14.01,2013-01-30 18:58:00,
2013-01-30 12:03:00,42.2,10.6,30.18,NW,304,5.0,12.0,27,0.00,,FEW055,0.00,675.00,VWS V14.01,2013-01-30 19:03:00,
2013-01-30 12:08:00,42.5,10.1,30.18,NNW,329,13.0,23.0,26,0.00,,FEW055,0.00,671.00,VWS V14.01,2013-01-30 19:08:00,
2013-01-30 12:13:00,42.4,10.8,30.18,NW,323,4.0,16.0,27,0.00,,FEW055,0.00,673.00,VWS V14.01,2013-01-30 19:13:00,
2013-01-30 12:19:00,42.7,11.1,30.18,NNW,342,13.0,19.0,27,0.00,,FEW055,0.00,563.00,VWS V14.01,2013-01-30 19:19:00,
2013-01-30 12:24:00,42.6,11.8,30.18,NNW,342,16.0,16.0,28,0.00,,FEW055,0.00,671.00,VWS V14.01,2013-01-30 19:24:00,
2013-01-30 12:29:00,43.4,13.3,30.18,NW,323,12.0,12.0,29,0.00,,FEW055,0.00,664.00,VWS V14.01,2013-01-30 19:29:00,
2013-01-30 12:34:00,43.5,11.8,30.18,NW,325,5.0,18.0,27,0.00,,FEW055,0.00,666.00,VWS V14.01,2013-01-30 19:34:00,
2013-01-30 12:39:00,43.7,11.9,30.18,NW,324,12.0,14.0,27,0.00,,FEW055,0.00,666.00,VWS V14.01,2013-01-30 19:39:00,
2013-01-30 12:44:00,43.4,11.7,30.17,NNW,342,19.0,19.0,27,0.00,,FEW055,0.00,661.00,VWS V14.01,2013-01-30 19:44:00,
2013-01-30 12:49:00,43.4,11.7,30.17,NNW,327,14.0,14.0,27,0.00,,FEW055,0.00,657.00,VWS V14.01,2013-01-30 19:49:00,
2013-01-30 12:54:00,43.2,10.6,30.16,NW,324,8.0,11.0,26,0.00,,FEW055,0.00,654.00,VWS V14.01,2013-01-30 19:54:00,
2013-01-30 12:59:00,43.4,10.8,30.16,NNW,340,12.0,16.0,26,0.00,,FEW055,0.00,650.00,VWS V14.01,2013-01-30 19:59:00,
2013-01-30 13:04:00,43.4,11.7,30.16,NW,316,7.0,19.0,27,0.00,,FEW070,0.00,647.00,VWS V14.01,2013-01-30 20:04:00,
2013-01-30 13:09:00,43.8,11.2,30.16,NW,311,6.0,6.0,26,0.00,,FEW070,0.00,642.00,VWS V14.01,2013-01-30 20:09:00,
2013-01-30 13:14:00,44.1,11.4,30.16,NW,304,8.0,12.0,26,0.00,,FEW070,0.00,636.00,VWS V14.01,2013-01-30 20:14:00,
2013-01-30 13:19:00,44.3,12.4,30.16,NNW,331,21.0,21.0,27,0.00,,FEW070,0.00,629.00,VWS V14.01,2013-01-30 20:19:00,
2013-01-30 13:24:00,44.4,12.5,30.15,NNW,331,13.0,13.0,27,0.00,,FEW070,0.00,622.00,VWS V14.01,2013-01-30 20:24:00,
2013-01-30 13:29:00,44.8,12.0,30.15,NW,313,4.0,8.0,26,0.00,,FEW070,0.00,615.00,VWS V14.01,2013-01-30 20:29:00,
2013-01-30 13:34:00,45.7,12.8,30.15,WNW,302,13.0,13.0,26,0.00,,FEW070,0.00,608.00,VWS V14.01,2013-01-30 20:34:00,
2013-01-30 13:39:00,45.7,12.8,30.15,WNW,292,10.0,15.0,26,0.00,,FEW070,0.00,603.00,VWS V14.01,2013-01-30 20:39:00,
2013-01-30 13:44:00,45.2,12.4,30.15,WNW,301,8.0,9.0,26,0.00,,FEW070,0.00,594.00,VWS V14.01,2013-01-30 20:44:00,
2013-01-30 13:49:00,45.6,12.7,30.15,NW,309,6.0,15.0,26,0.00,,FEW070,0.00,584.00,VWS V14.01,2013-01-30 20:49:00,
2013-01-30 13:54:00,46.1,14.0,30.15,NW,322,11.0,12.0,27,0.00,,FEW070,0.00,577.00,VWS V14.01,2013-01-30 20:54:00,
2013-01-30 13:59:00,45.9,13.0,30.15,NW,313,13.0,16.0,26,0.00,,FEW070,0.00,566.00,VWS V14.01,2013-01-30 20:59:00,
2013-01-30 14:04:00,45.7,12.8,30.15,North,349,10.0,17.0,26,0.00,,FEW070,0.00,555.00,VWS V14.01,2013-01-30 21:04:00,
2013-01-30 14:09:00,45.3,13.3,30.14,NW,324,3.0,8.0,27,0.00,,FEW070,0.00,547.00,VWS V14.01,2013-01-30 21:09:00,
2013-01-30 14:15:00,45.9,13.0,30.15,NW,319,4.0,10.0,26,0.00,,FEW070,0.00,536.00,VWS V14.01,2013-01-30 21:15:00,
2013-01-30 14:20:00,46.2,13.2,30.15,WNW,288,12.0,13.0,26,0.00,,FEW070,0.00,522.00,VWS V14.01,2013-01-30 21:20:00,
2013-01-30 14:25:00,46.3,13.3,30.14,West,267,6.0,15.0,26,0.00,,FEW070,0.00,513.00,VWS V14.01,2013-01-30 21:25:00,
2013-01-30 14:30:00,46.0,13.9,30.14,WNW,293,12.0,13.0,27,0.00,,FEW070,0.00,501.00,VWS V14.01,2013-01-30 21:30:00,
2013-01-30 14:35:00,46.4,14.2,30.14,WNW,290,13.0,15.0,27,0.00,,FEW070,0.00,489.00,VWS V14.01,2013-01-30 21:35:00,
2013-01-30 14:40:00,46.5,14.3,30.14,WNW,291,5.0,13.0,27,0.00,,FEW070,0.00,478.00,VWS V14.01,2013-01-30 21:40:00,
2013-01-30 14:45:00,46.9,13.8,30.14,NW,317,3.0,10.0,26,0.00,,FEW070,0.00,466.00,VWS V14.01,2013-01-30 21:45:00,
2013-01-30 14:50:00,47.0,13.9,30.14,WNW,297,10.0,13.0,26,0.00,,FEW070,0.00,452.00,VWS V14.01,2013-01-30 21:50:00,
2013-01-30 14:55:00,46.8,13.7,30.14,WNW,301,7.0,13.0,26,0.00,,FEW070,0.00,438.00,VWS V14.01,2013-01-30 21:55:00,
2013-01-30 15:00:00,46.9,14.7,30.14,NW,305,4.0,11.0,27,0.00,,FEW070,0.00,425.00,VWS V14.01,2013-01-30 22:00:00,
2013-01-30 15:05:00,47.1,14.9,30.14,NW,323,4.0,10.0,27,0.00,,FEW070,0.00,411.00,VWS V14.01,2013-01-30 22:05:00,
2013-01-30 15:10:00,47.2,14.9,30.14,WNW,288,7.0,7.0,27,0.00,,FEW070,0.00,397.00,VWS V14.01,2013-01-30 22:10:00,
2013-01-30 15:15:00,47.7,15.4,30.14,NW,325,5.0,10.0,27,0.00,,FEW070,0.00,381.00,VWS V14.01,2013-01-30 22:15:00,
2013-01-30 15:20:00,48.2,14.9,30.14,WNW,287,7.0,10.0,26,0.00,,FEW070,0.00,367.00,VWS V14.01,2013-01-30 22:20:00,
2013-01-30 15:25:00,47.8,14.6,30.14,WNW,296,8.0,9.0,26,0.00,,FEW070,0.00,283.00,VWS V14.01,2013-01-30 22:25:00,
2013-01-30 15:30:00,47.6,15.3,30.14,WNW,293,2.0,8.0,27,0.00,,FEW070,0.00,336.00,VWS V14.01,2013-01-30 22:30:00,
2013-01-30 15:35:00,47.7,15.4,30.14,WNW,291,5.0,17.0,27,0.00,,FEW070,0.00,288.00,VWS V14.01,2013-01-30 22:35:00,
2013-01-30 15:40:00,47.3,15.0,30.15,NW,307,2.0,14.0,27,0.00,,FEW070,0.00,232.00,VWS V14.01,2013-01-30 22:40:00,
2013-01-30 15:45:00,47.1,14.9,30.15,West,265,15.0,16.0,27,0.00,,FEW070,0.00,229.00,VWS V14.01,2013-01-30 22:45:00,
2013-01-30 15:50:00,46.6,15.3,30.15,NNW,327,5.0,16.0,28,0.00,,FEW070,0.00,272.00,VWS V14.01,2013-01-30 22:50:00,
2013-01-30 15:55:00,46.4,15.1,30.15,NNW,339,6.0,20.0,28,0.00,,FEW070,0.00,139.00,VWS V14.01,2013-01-30 22:55:00,
2013-01-30 16:00:00,45.9,14.6,30.14,NNW,340,12.0,18.0,28,0.00,,FEW065,0.00,132.00,VWS V14.01,2013-01-30 23:00:00,
2013-01-30 16:05:00,45.4,15.0,30.14,WNW,296,9.0,18.0,29,0.00,,FEW065,0.00,93.00,VWS V14.01,2013-01-30 23:05:00,
2013-01-30 16:10:00,45.1,14.8,30.14,NW,323,12.0,17.0,29,0.00,,FEW065,0.00,51.00,VWS V14.01,2013-01-30 23:10:00,
2013-01-30 16:15:00,44.9,14.6,30.14,North,360,12.0,16.0,29,0.00,,FEW065,0.00,58.00,VWS V14.01,2013-01-30 23:15:00,
2013-01-30 16:20:00,44.5,14.2,30.14,NNW,344,12.0,16.0,29,0.00,,FEW065,0.00,32.00,VWS V14.01,2013-01-30 23:20:00,
2013-01-30 16:25:00,44.1,13.9,30.14,NW,321,6.0,21.0,29,0.00,,FEW065,0.00,42.00,VWS V14.01,2013-01-30 23:25:00,
2013-01-30 16:31:00,44.0,13.8,30.14,NW,321,9.0,11.0,29,0.00,,FEW065,0.00,33.00,VWS V14.01,2013-01-30 23:31:00,
2013-01-30 16:36:00,44.0,14.6,30.14,WNW,292,12.0,17.0,30,0.00,,FEW065,0.00,33.00,VWS V14.01,2013-01-30 23:36:00,
2013-01-30 16:41:00,43.7,14.3,30.14,WNW,286,14.0,14.0,30,0.00,,FEW065,0.00,26.00,VWS V14.01,2013-01-30 23:41:00,
2013-01-30 16:46:00,43.6,14.2,30.14,NW,317,3.0,13.0,30,0.00,,FEW065,0.00,26.00,VWS V14.01,2013-01-30 23:46:00,
2013-01-30 16:51:00,43.5,14.1,30.15,NNW,338,10.0,15.0,30,0.00,,FEW065,0.00,19.00,VWS V14.01,2013-01-30 23:51:00,
2013-01-30 16:56:00,43.4,14.1,30.15,WNW,302,8.0,14.0,30,0.00,,FEW065,0.00,21.00,VWS V14.01,2013-01-30 23:56:00,
2013-01-30 17:01:00,43.3,14.7,30.15,NNW,339,9.0,11.0,31,0.00,,FEW065,0.00,19.00,VWS V14.01,2013-01-31 00:01:00,
2013-01-30 17:06:00,43.1,14.5,30.15,WNW,284,7.0,10.0,31,0.00,,FEW065,0.00,16.00,VWS V14.01,2013-01-31 00:06:00,
2013-01-30 17:11:00,42.9,14.4,30.15,NW,325,2.0,14.0,31,0.00,,FEW065,0.00,14.00,VWS V14.01,2013-01-31 00:11:00,
2013-01-30 17:16:00,42.6,14.8,30.15,WNW,295,3.0,18.0,32,0.00,,FEW065,0.00,12.00,VWS V14.01,2013-01-31 00:16:00,
2013-01-30 17:21:00,42.4,14.6,30.15,NNW,330,4.0,11.0,32,0.00,,FEW065,0.00,11.00,VWS V14.01,2013-01-31 00:21:00,
2013-01-30 17:26:00,42.1,15.1,30.15,NNW,335,7.0,10.0,33,0.00,,FEW065,0.00,7.00,VWS V14.01,2013-01-31 00:26:00,
2013-01-30 17:31:00,41.7,15.4,30.15,NW,313,5.0,9.0,34,0.00,,FEW065,0.00,5.00,VWS V14.01,2013-01-31 00:31:00,
2013-01-30 17:36:00,41.4,15.1,30.15,NW,318,9.0,9.0,34,0.00,,FEW065,0.00,0.00,VWS V14.01,2013-01-31 00:36:00,
2013-01-30 17:41:00,41.2,15.6,30.15,NW,322,8.0,10.0,35,0.00,,FEW065,0.00,0.00,VWS V14.01,2013-01-31 00:41:00,
2013-01-30 17:46:00,40.9,15.4,30.15,NW,319,3.0,5.0,35,0.00,,FEW065,0.00,0.00,VWS V14.01,2013-01-31 00:46:00,
2013-01-30 17:51:00,40.7,15.8,30.15,NNW,341,3.0,7.0,36,0.00,,FEW065,0.00,0.00,VWS V14.01,2013-01-31 00:51:00,
2013-01-30 17:56:00,40.4,15.6,30.15,NNW,345,1.0,7.0,36,0.00,,FEW065,0.00,0.00,VWS V14.01,2013-01-31 00:56:00,
2013-01-30 18:01:00,40.2,15.4,30.15,NNW,345,0.0,5.0,36,0.00,,FEW065,0.00,0.00,VWS V14.01,2013-01-31 01:01:00,
2013-01-30 18:06:00,40.0,15.2,30.15,NNW,345,0.0,6.0,36,0.00,,FEW065,0.00,0.00,VWS V14.01,2013-01-31 01:06:00,
2013-01-30 18:11:00,39.7,15.6,30.16,NNW,345,2.0,3.0,37,0.00,,FEW065,0.00,0.00,VWS V14.01,2013-01-31 01:11:00,
2013-01-30 18:16:00,39.5,15.4,30.16,NNW,345,0.0,3.0,37,0.00,,FEW065,0.00,0.00,VWS V14.01,2013-01-31 01:16:00,
2013-01-30 18:21:00,39.4,15.3,30.16,NNW,345,0.0,2.0,37,0.00,,FEW065,0.00,0.00,VWS V14.01,2013-01-31 01:21:00,
2013-01-30 18:26:00,39.1,15.6,30.16,NNW,345,1.0,6.0,38,0.00,,FEW065,0.00,0.00,VWS V14.01,2013-01-31 01:26:00,
2013-01-30 18:31:00,38.8,15.4,30.17,NNW,345,5.0,5.0,38,0.00,,FEW065,0.00,0.00,VWS V14.01,2013-01-31 01:31:00,
2013-01-30 18:36:00,38.6,15.2,30.17,NNW,345,0.0,3.0,38,0.00,,FEW065,0.00,0.00,VWS V14.01,2013-01-31 01:36:00,
2013-01-30 18:41:00,38.5,15.7,30.17,NNW,345,0.0,1.0,39,0.00,,FEW065,0.00,0.00,VWS V14.01,2013-01-31 01:41:00,
2013-01-30 18:46:00,38.3,15.5,30.17,NNW,345,0.0,1.0,39,0.00,,FEW065,0.00,0.00,VWS V14.01,2013-01-31 01:46:00,
2013-01-30 18:51:00,38.2,16.0,30.17,NNW,345,0.0,0.0,40,0.00,,FEW065,0.00,0.00,VWS V14.01,2013-01-31 01:51:00,
2013-01-30 18:56:00,37.8,15.7,30.17,NNW,345,0.0,0.0,40,0.00,,FEW065,0.00,0.00,VWS V14.01,2013-01-31 01:56:00,
2013-01-30 19:01:00,37.4,15.3,30.17,NNW,345,0.0,2.0,40,0.00,,FEW065,0.00,0.00,VWS V14.01,2013-01-31 02:01:00,
2013-01-30 19:07:00,37.2,15.7,30.17,NNW,345,0.0,0.0,41,0.00,,FEW065,0.00,0.00,VWS V14.01,2013-01-31 02:07:00,
2013-01-30 19:12:00,37.1,15.6,30.18,NNW,345,0.0,0.0,41,0.00,,FEW065,0.00,0.00,VWS V14.01,2013-01-31 02:12:00,
2013-01-30 19:17:00,36.9,16.0,30.18,NNW,345,0.0,1.0,42,0.00,,FEW065,0.00,0.00,VWS V14.01,2013-01-31 02:17:00,
2013-01-30 19:22:00,36.6,15.7,30.18,NNW,345,0.0,0.0,42,0.00,,FEW065,0.00,0.00,VWS V14.01,2013-01-31 02:22:00,
2013-01-30 19:27:00,36.4,16.0,30.18,NNW,345,0.0,2.0,43,0.00,,FEW065,0.00,0.00,VWS V14.01,2013-01-31 02:27:00,
2013-01-30 19:32:00,36.1,15.8,30.18,NNW,345,0.0,2.0,43,0.00,,FEW065,0.00,0.00,VWS V14.01,2013-01-31 02:32:00,
2013-01-30 19:37:00,35.9,16.1,30.18,NNW,345,2.0,3.0,44,0.00,,FEW065,0.00,0.00,VWS V14.01,2013-01-31 02:37:00,
2013-01-30 19:42:00,35.8,16.0,30.18,NNW,345,0.0,2.0,44,0.00,,FEW065,0.00,0.00,VWS V14.01,2013-01-31 02:42:00,
2013-01-30 19:47:00,35.7,15.9,30.19,NNW,345,0.0,3.0,44,0.00,,FEW065,0.00,0.00,VWS V14.01,2013-01-31 02:47:00,
2013-01-30 19:52:00,35.7,16.5,30.18,NNW,345,0.0,0.0,45,0.00,,FEW065,0.00,0.00,VWS V14.01,2013-01-31 02:52:00,
2013-01-30 19:57:00,35.6,15.9,30.18,NNW,345,0.0,0.0,44,0.00,,FEW065,0.00,0.00,VWS V14.01,2013-01-31 02:57:00,
2013-01-30 20:02:00,35.5,15.8,30.18,NNW,345,0.0,1.0,44,0.00,,FEW100,0.00,0.00,VWS V14.01,2013-01-31 03:02:00,
2013-01-30 20:07:00,35.3,16.1,30.18,NNW,345,0.0,1.0,45,0.00,,FEW100,0.00,0.00,VWS V14.01,2013-01-31 03:07:00,
2013-01-30 20:12:00,35.1,15.9,30.18,NNW,345,0.0,3.0,45,0.00,,FEW100,0.00,0.00,VWS V14.01,2013-01-31 03:12:00,
2013-01-30 20:17:00,35.0,15.8,30.18,NNW,345,0.0,1.0,45,0.00,,FEW100,0.00,0.00,VWS V14.01,2013-01-31 03:17:00,
2013-01-30 20:22:00,34.6,16.0,30.19,NNW,345,0.0,0.0,46,0.00,,FEW100,0.00,0.00,VWS V14.01,2013-01-31 03:22:00,
2013-01-30 20:27:00,34.1,15.5,30.19,NNW,345,0.0,3.0,46,0.00,,FEW100,0.00,0.00,VWS V14.01,2013-01-31 03:27:00,
2013-01-30 20:32:00,33.7,15.6,30.19,NNW,345,0.0,1.0,47,0.00,,FEW100,0.00,0.00,VWS V14.01,2013-01-31 03:32:00,
2013-01-30 20:37:00,33.4,15.8,30.19,NNW,345,0.0,0.0,48,0.00,,FEW100,0.00,0.00,VWS V14.01,2013-01-31 03:37:00,
2013-01-30 20:42:00,33.1,15.6,30.19,NNW,345,1.0,3.0,48,0.00,,FEW100,0.00,0.00,VWS V14.01,2013-01-31 03:42:00,
2013-01-30 20:47:00,32.7,15.2,30.19,NNW,345,0.0,0.0,48,0.00,,FEW100,0.00,0.00,VWS V14.01,2013-01-31 03:47:00,
2013-01-30 20:52:00,32.4,15.4,30.19,NNW,345,0.0,0.0,49,0.00,,FEW100,0.00,0.00,VWS V14.01,2013-01-31 03:52:00,
2013-01-30 20:57:00,32.3,15.3,30.19,NNW,345,0.0,0.0,49,0.00,,FEW100,0.00,0.00,VWS V14.01,2013-01-31 03:57:00,
2013-01-30 21:02:00,32.0,15.0,30.19,NNW,345,0.0,1.0,49,0.00,,FEW150,0.00,0.00,VWS V14.01,2013-01-31 04:02:00,
2013-01-30 21:07:00,31.8,14.8,30.19,NNW,345,0.0,0.0,49,0.00,,FEW150,0.00,0.00,VWS V14.01,2013-01-31 04:07:00,
2013-01-30 21:12:00,31.6,14.6,30.19,NNW,345,0.0,0.0,49,0.00,,FEW150,0.00,0.00,VWS V14.01,2013-01-31 04:12:00,
2013-01-30 21:17:00,31.4,14.9,30.19,NNW,345,0.0,1.0,50,0.00,,FEW150,0.00,0.00,VWS V14.01,2013-01-31 04:17:00,
2013-01-30 21:22:00,31.2,15.2,30.19,NNW,345,0.0,1.0,51,0.00,,FEW150,0.00,0.00,VWS V14.01,2013-01-31 04:22:00,
2013-01-30 21:27:00,31.0,15.0,30.19,NNW,345,0.0,0.0,51,0.00,,FEW150,0.00,0.00,VWS V14.01,2013-01-31 04:27:00,
2013-01-30 21:32:00,30.8,15.3,30.19,NNW,345,0.0,1.0,52,0.00,,FEW150,0.00,0.00,VWS V14.01,2013-01-31 04:32:00,
2013-01-30 21:37:00,30.6,15.1,30.19,NNW,345,0.0,0.0,52,0.00,,FEW150,0.00,0.00,VWS V14.01,2013-01-31 04:37:00,
2013-01-30 21:42:00,30.5,15.4,30.19,NNW,345,0.0,0.0,53,0.00,,FEW150,0.00,0.00,VWS V14.01,2013-01-31 04:42:00,
2013-01-30 21:47:00,30.4,15.3,30.19,NNW,345,0.0,0.0,53,0.00,,FEW150,0.00,0.00,VWS V14.01,2013-01-31 04:47:00,
2013-01-30 21:52:00,30.3,15.2,30.19,NNW,345,0.0,0.0,53,0.00,,FEW150,0.00,0.00,VWS V14.01,2013-01-31 04:52:00,
2013-01-30 21:57:00,30.1,15.5,30.19,NNW,345,0.0,0.0,54,0.00,,FEW150,0.00,0.00,VWS V14.01,2013-01-31 04:57:00,
2013-01-30 22:00:00,30.0,15.4,30.19,NNW,345,0.0,0.0,54,0.00,,SCT150,0.00,0.00,VWS V14.01,2013-01-31 05:00:00,
2013-01-30 22:01:00,30.0,15.4,30.19,NNW,345,0.0,0.0,54,0.00,,SCT150,0.00,0.00,VWS V14.01,2013-01-31 05:01:00,
2013-01-30 22:03:00,29.9,15.3,30.19,NNW,345,0.0,2.0,54,0.00,,SCT150,0.00,0.00,VWS V14.01,2013-01-31 05:03:00,
2013-01-30 22:08:00,29.8,15.2,30.19,NNW,345,0.0,0.0,54,0.00,,SCT150,0.00,0.00,VWS V14.01,2013-01-31 05:08:00,
2013-01-30 22:13:00,29.6,15.8,30.19,NNW,345,0.0,1.0,56,0.00,,SCT150,0.00,0.00,VWS V14.01,2013-01-31 05:13:00,
2013-01-30 22:18:00,29.5,15.8,30.19,NNW,345,2.0,3.0,56,0.00,,SCT150,0.00,0.00,VWS V14.01,2013-01-31 05:18:00,
2013-01-30 22:23:00,29.4,15.2,30.19,NNW,345,0.0,2.0,55,0.00,,SCT150,0.00,0.00,VWS V14.01,2013-01-31 05:23:00,
2013-01-30 22:28:00,29.3,15.6,30.19,NNW,345,0.0,0.0,56,0.00,,SCT150,0.00,0.00,VWS V14.01,2013-01-31 05:28:00,
2013-01-30 22:33:00,29.3,15.6,30.19,NNW,345,0.0,0.0,56,0.00,,SCT150,0.00,0.00,VWS V14.01,2013-01-31 05:33:00,
2013-01-30 22:38:00,29.2,15.5,30.19,NNW,345,0.0,3.0,56,0.00,,SCT150,0.00,0.00,VWS V14.01,2013-01-31 05:38:00,
2013-01-30 22:43:00,29.2,15.5,30.19,NNW,345,0.0,0.0,56,0.00,,SCT150,0.00,0.00,VWS V14.01,2013-01-31 05:43:00,
2013-01-30 22:48:00,29.1,15.4,30.20,NNW,345,0.0,0.0,56,0.00,,SCT150,0.00,0.00,VWS V14.01,2013-01-31 05:48:00,
2013-01-30 22:54:00,29.0,15.3,30.20,NNW,345,0.0,0.0,56,0.00,,SCT150,0.00,0.00,VWS V14.01,2013-01-31 05:54:00,
2013-01-30 22:59:00,28.9,15.2,30.20,NNW,345,0.0,0.0,56,0.00,,SCT150,0.00,0.00,VWS V14.01,2013-01-31 05:59:00,
2013-01-30 23:04:00,28.7,15.4,30.20,NNW,345,0.0,0.0,57,0.00,,FEW065,0.00,0.00,VWS V14.01,2013-01-31 06:04:00,
2013-01-30 23:09:00,28.6,15.3,30.20,NNW,345,0.0,0.0,57,0.00,,FEW065,0.00,0.00,VWS V14.01,2013-01-31 06:09:00,
2013-01-30 23:14:00,28.4,15.1,30.20,NNW,345,0.0,0.0,57,0.00,,FEW065,0.00,0.00,VWS V14.01,2013-01-31 06:14:00,
2013-01-30 23:19:00,28.3,15.4,30.20,NNW,345,0.0,0.0,58,0.00,,FEW065,0.00,0.00,VWS V14.01,2013-01-31 06:19:00,
2013-01-30 23:24:00,28.0,15.1,30.20,NNW,345,0.0,3.0,58,0.00,,FEW065,0.00,0.00,VWS V14.01,2013-01-31 06:24:00,
2013-01-30 23:29:00,27.8,15.4,30.20,NNW,345,0.0,1.0,59,0.00,,FEW065,0.00,0.00,VWS V14.01,2013-01-31 06:29:00,
2013-01-30 23:34:00,27.7,15.3,30.20,NNW,345,0.0,0.0,59,0.00,,FEW065,0.00,0.00,VWS V14.01,2013-01-31 06:34:00,
2013-01-30 23:39:00,27.5,15.4,30.20,NNW,345,2.0,3.0,60,0.00,,FEW065,0.00,0.00,VWS V14.01,2013-01-31 06:39:00,
2013-01-30 23:44:00,27.3,15.6,30.21,NNW,345,0.0,3.0,61,0.00,,FEW065,0.00,0.00,VWS V14.01,2013-01-31 06:44:00,
2013-01-30 23:49:00,27.2,15.6,30.21,NNW,345,0.0,2.0,61,0.00,,FEW065,0.00,0.00,VWS V14.01,2013-01-31 06:49:00,
2013-01-30 23:54:00,27.1,15.8,30.20,NNW,345,0.0,2.0,62,0.00,,FEW065,0.00,0.00,VWS V14.01,2013-01-31 06:54:00,
2013-01-30 23:59:00,27.0,15.7,30.20,NNW,345,0.0,0.0,62,0.00,,FEW065,0.00,0.00,VWS V14.01,2013-01-31 06:59:00,